IZ1CYF-13 Weather Reports


Display with metric or nautical units.
time (UTC)temp
F
wind
direction
speed
MPH
gust
MPH
rain 1hr
in
rain 24hr
in
rain mn
in
humidity
%
barometer
mb
20260505183847 63 0.0 0.0 0.00 0.00 0.00 58 1013.6
20260505182902 68 0.0 0.0 0.00 0.00 0.00 50 1012.9
20260505181847 67 0.0 0.0 0.00 0.00 0.00 52 1013.1
20260505180902 64 0.0 0.0 0.00 0.00 0.00 57 1013.5
20260505175902 59 0.0 0.0 0.00 0.00 0.00 68 1014.3
20260505174848 60 0.0 0.0 0.00 0.00 0.00 65 1014.3
20260505173903 68 0.0 0.0 0.00 0.00 0.00 51 1013.2
20260505172848 66 0.0 0.0 0.00 0.00 0.00 54 1013.4
20260505171848 62 0.0 0.0 0.00 0.00 0.00 59 1013.9
20260505170907 61 0.0 0.0 0.00 0.00 0.00 61 1013.9
20260505165848 65 0.0 0.0 0.00 0.00 0.00 55 1013.6
20260505164851 62 0.0 0.0 0.00 0.00 0.00 60 1014.0
20260505163847 64 0.0 0.0 0.00 0.00 0.00 56 1013.6
20260505162847 62 0.0 0.0 0.00 0.00 0.00 58 1013.8
20260505161851 65 0.0 0.0 0.00 0.00 0.00 54 1013.6
20260505152851 64 0.0 0.0 0.00 0.00 0.00 55 1013.7
20260505151852 63 0.0 0.0 0.00 0.00 0.00 58 1014.0
20260505150847 64 0.0 0.0 0.00 0.00 0.00 55 1013.7
20260505124848 61 0.0 0.0 0.00 0.00 0.00 57 1014.7
20260505123848 66 0.0 0.0 0.00 0.00 0.00 49 1014.1
20260505122848 66 0.0 0.0 0.00 0.00 0.00 50 1014.2
20260505121848 65 0.0 0.0 0.00 0.00 0.00 51 1014.3
20260505120849 63 0.0 0.0 0.00 0.00 0.00 55 1014.6
20260505115852 65 0.0 0.0 0.00 0.00 0.00 51 1014.3
20260505114848 65 0.0 0.0 0.00 0.00 0.00 52 1014.4
20260505113848 65 0.0 0.0 0.00 0.00 0.00 52 1014.4
20260505112848 63 0.0 0.0 0.00 0.00 0.00 55 1014.6
20260505111903 62 0.0 0.0 0.00 0.00 0.00 56 1014.8
20260505110853 64 0.0 0.0 0.00 0.00 0.00 53 1014.6
20260505101848 65 0.0 0.0 0.00 0.00 0.00 47 1014.6
20260505100849 66 0.0 0.0 0.00 0.00 0.00 46 1014.4
20260505095848 68 0.0 0.0 0.00 0.00 0.00 42 1014.2
20260505094848 69 0.0 0.0 0.00 0.00 0.00 41 1014.2
20260505093903 65 0.0 0.0 0.00 0.00 0.00 46 1014.7
20260505092848 64 0.0 0.0 0.00 0.00 0.00 48 1014.8
20260505091849 62 0.0 0.0 0.00 0.00 0.00 51 1015.1
20260505090848 60 0.0 0.0 0.00 0.00 0.00 53 1015.2
20260505085848 64 0.0 0.0 0.00 0.00 0.00 49 1014.7
20260505084848 62 0.0 0.0 0.00 0.00 0.00 50 1014.9
20260505083903 67 0.0 0.0 0.00 0.00 0.00 43 1014.1
20260505082848 65 0.0 0.0 0.00 0.00 0.00 46 1014.5
20260505081908 66 0.0 0.0 0.00 0.00 0.00 44 1014.2
20260505080919 68 0.0 0.0 0.00 0.00 0.00 43 1014.0
20260505075904 63 0.0 0.0 0.00 0.00 0.00 51 1014.8
20260505074848 65 0.0 0.0 0.00 0.00 0.00 47 1014.7
20260505073848 65 0.0 0.0 0.00 0.00 0.00 48 1014.6
20260505072849 62 0.0 0.0 0.00 0.00 0.00 51 1015.0
20260505071849 65 0.0 0.0 0.00 0.00 0.00 47 1014.6
20260505070904 63 0.0 0.0 0.00 0.00 0.00 49 1015.0
20260505065848 66 0.0 0.0 0.00 0.00 0.00 46 1014.6
20260505064849 65 0.0 0.0 0.00 0.00 0.00 46 1014.5
20260505063849 64 0.0 0.0 0.00 0.00 0.00 48 1014.6
20260505062849 60 0.0 0.0 0.00 0.00 0.00 53 1015.3
20260505061848 63 0.0 0.0 0.00 0.00 0.00 49 1014.8
20260505060848 60 0.0 0.0 0.00 0.00 0.00 53 1015.2
20260505055850 64 0.0 0.0 0.00 0.00 0.00 53 1014.5
20260505054849 65 0.0 0.0 0.00 0.00 0.00 51 1014.4
20260505053852 60 0.0 0.0 0.00 0.00 0.00 55 1015.2
20260505052849 66 0.0 0.0 0.00 0.00 0.00 49 1014.2
20260505051920 66 0.0 0.0 0.00 0.00 0.00 45 1014.1
20260505050849 65 0.0 0.0 0.00 0.00 0.00 48 1014.2
20260505040905 64 0.0 0.0 0.00 0.00 0.00 53 1014.7
20260505035853 59 0.0 0.0 0.00 0.00 0.00 63 1015.6
20260505034853 61 0.0 0.0 0.00 0.00 0.00 58 1015.4
20260505033851 65 0.0 0.0 0.00 0.00 0.00 52 1014.8
20260505032853 64 0.0 0.0 0.00 0.00 0.00 54 1014.9
20260505031904 67 0.0 0.0 0.00 0.00 0.00 50 1014.5
20260505030853 65 0.0 0.0 0.00 0.00 0.00 54 1015.0
20260505025850 59 0.0 0.0 0.00 0.00 0.00 64 1016.4
20260505024853 63 0.0 0.0 0.00 0.00 0.00 57 1015.9
20260505023849 62 0.0 0.0 0.00 0.00 0.00 59 1016.1
20260505022908 66 0.0 0.0 0.00 0.00 0.00 52 1015.7
20260505021850 67 0.0 0.0 0.00 0.00 0.00 51 1015.5
20260505020849 65 0.0 0.0 0.00 0.00 0.00 53 1015.8
20260505015908 65 0.0 0.0 0.00 0.00 0.00 55 1015.9
20260505014850 60 0.0 0.0 0.00 0.00 0.00 61 1016.5
20260505013853 60 0.0 0.0 0.00 0.00 0.00 62 1016.5
20260505012849 63 0.0 0.0 0.00 0.00 0.00 58 1016.2
20260505011849 61 0.0 0.0 0.00 0.00 0.00 60 1016.5
20260505010920 62 0.0 0.0 0.00 0.00 0.00 58 1016.3
20260505005850 62 0.0 0.0 0.00 0.00 0.00 59 1016.4
20260505004854 65 0.0 0.0 0.00 0.00 0.00 53 1016.1
20260505003850 63 0.0 0.0 0.00 0.00 0.00 56 1016.5
20260505002904 65 0.0 0.0 0.00 0.00 0.00 52 1016.3
20260505001850 66 0.0 0.0 0.00 0.00 0.00 52 1016.4
20260505000921 63 0.0 0.0 0.00 0.00 0.00 56 1016.9
20260504235850 63 0.0 0.0 0.00 0.00 0.00 55 1017.1
20260504234909 65 0.0 0.0 0.00 0.00 0.00 54 1017.1
20260504233853 62 0.0 0.0 0.00 0.00 0.00 57 1017.6
20260504232850 64 0.0 0.0 0.00 0.00 0.00 55 1017.6
20260504231850 64 0.0 0.0 0.00 0.00 0.00 54 1017.8
20260504230850 65 0.0 0.0 0.00 0.00 0.00 51 1017.6
20260504225854 59 0.0 0.0 0.00 0.00 0.00 62 1018.8
20260504224854 61 0.0 0.0 0.00 0.00 0.00 58 1018.5
20260504223853 67 0.0 0.0 0.00 0.00 0.00 50 1017.9
20260504222850 62 0.0 0.0 0.00 0.00 0.00 57 1018.6
20260504221850 59 0.0 0.0 0.00 0.00 0.00 63 1019.3
20260504220853 61 0.0 0.0 0.00 0.00 0.00 59 1019.0
20260504215850 60 0.0 0.0 0.00 0.00 0.00 61 1019.2
20260504214851 58 0.0 0.0 0.00 0.00 0.00 66 1019.6
20260504213850 59 0.0 0.0 0.00 0.00 0.00 63 1019.4
20260504212906 59 0.0 0.0 0.00 0.00 0.00 64 1019.7
20260504211855 61 0.0 0.0 0.00 0.00 0.00 59 1019.4
20260504210853 70 0.0 0.0 0.00 0.00 0.00 44 1017.9
20260504205851 68 0.0 0.0 0.00 0.00 0.00 47 1018.4
20260504204850 67 0.0 0.0 0.00 0.00 0.00 49 1018.5
20260504203850 61 0.0 0.0 0.00 0.00 0.00 57 1019.3
20260504202851 66 0.0 0.0 0.00 0.00 0.00 50 1018.7
20260504201850 68 0.0 0.0 0.00 0.00 0.00 46 1018.3
20260504200850 70 0.0 0.0 0.00 0.00 0.00 44 1018.1
20260504195850 70 0.0 0.0 0.00 0.00 0.00 45 1018.1
20260504194850 65 0.0 0.0 0.00 0.00 0.00 51 1018.9
20260504193850 71 0.0 0.0 0.00 0.00 0.00 43 1017.8
20260504192850 72 0.0 0.0 0.00 0.00 0.00 42 1017.8
20260504191851 70 0.0 0.0 0.00 0.00 0.00 44 1018.0
20260504190850 70 0.0 0.0 0.00 0.00 0.00 44 1017.7
20260504184850 70 0.0 0.0 0.00 0.00 0.00 45 1017.4